Precipitable_Water
0.30 0.24 0.25 0.25 0.25 0.25 0.24 0.23 0.20 0.19 0.19 0.16 0.17 0.18 0.17 0.17 0.19 0.21 0.22 0.24 0.25 0.23 0.21 0.20 0.22 0.23 0.24 0.26 0.27 0.36 0.55 0.52 0.45 0.44 0.48 0.44 0.46 0.53 0.59 0.66 0.67 0.74 0.80 0.97 1.13 1.17 1.16 1.08 1.08 1.14 1.18 1.20 1.26 1.31 1.31 1.29 1.30 1.31 1.28 1.28 1.30 1.40 1.49 1.53 1.52 1.52 1.50 1.45 1.45 1.48 1.45 1.43 1.47 1.48 1.54 1.52 1.55 1.56 1.58 1.59 1.65 1.68 1.65 1.65 1.69 1.68
0.27 0.24 0.24 0.26 0.27 0.27 0.25 0.25 0.23 0.21 0.20 0.18 0.19 0.18 0.16 0.16 0.16 0.19 0.20 0.23 0.25 0.23 0.20 0.20 0.21 0.22 0.24 0.25 0.26 0.28 0.45 0.52 0.46 0.42 0.46 0.48 0.54 0.54 0.59 0.68 0.74 0.79 0.87 1.04 1.06 1.11 1.15 1.08 1.07 1.11 1.15 1.17 1.15 1.22 1.29 1.28 1.27 1.32 1.35 1.34 1.38 1.43 1.51 1.53 1.54 1.52 1.49 1.49 1.46 1.44 1.46 1.48 1.51 1.50 1.43 1.40 1.47 1.51 1.58 1.61 1.64 1.68 1.70 1.68 1.67 1.65
0.25 0.22 0.25 0.26 0.27 0.28 0.28 0.26 0.26 0.23 0.19 0.19 0.20 0.17 0.15 0.17 0.16 0.18 0.20 0.23 0.23 0.21 0.19 0.20 0.21 0.21 0.22 0.24 0.25 0.27 0.27 0.42 0.55 0.46 0.44 0.45 0.50 0.51 0.58 0.71 0.79 0.81 0.84 0.92 1.00 1.06 1.09 1.07 1.03 1.05 1.10 1.15 1.20 1.22 1.27 1.31 1.30 1.34 1.38 1.39 1.45 1.48 1.52 1.54 1.53 1.50 1.47 1.50 1.54 1.52 1.52 1.53 1.53 1.58 1.53 1.49 1.47 1.53 1.53 1.57 1.62 1.66 1.68 1.65 1.62 1.61
0.22 0.23 0.25 0.26 0.28 0.28 0.31 0.32 0.28 0.24 0.20 0.19 0.18 0.17 0.17 0.17 0.15 0.14 0.18 0.20 0.20 0.19 0.18 0.22 0.21 0.20 0.22 0.23 0.24 0.25 0.26 0.28 0.49 0.52 0.42 0.40 0.43 0.50 0.62 0.75 0.77 0.77 0.78 0.84 0.90 0.97 1.00 1.02 1.01 1.02 1.05 1.11 1.18 1.22 1.26 1.28 1.30 1.38 1.38 1.40 1.50 1.53 1.54 1.52 1.53 1.51 1.53 1.54 1.60 1.64 1.64 1.63 1.59 1.49 1.49 1.51 1.55 1.53 1.52 1.52 1.60 1.63 1.64 1.62 1.58 1.55
0.20 0.26 0.25 0.26 0.28 0.30 0.29 0.30 0.27 0.24 0.20 0.19 0.18 0.17 0.18 0.17 0.16 0.17 0.16 0.17 0.19 0.17 0.20 0.23 0.20 0.19 0.20 0.19 0.20 0.22 0.24 0.25 0.41 0.55 0.48 0.43 0.42 0.53 0.57 0.77 0.83 0.78 0.76 0.84 0.83 0.91 0.90 0.94 0.96 0.99 1.04 1.11 1.14 1.17 1.23 1.30 1.35 1.37 1.37 1.44 1.51 1.54 1.51 1.53 1.53 1.54 1.56 1.59 1.60 1.61 1.63 1.61 1.52 1.47 1.40 1.41 1.42 1.48 1.50 1.53 1.55 1.56 1.58 1.57 1.53 1.52
0.21 0.25 0.28 0.25 0.29 0.30 0.29 0.27 0.26 0.24 0.20 0.20 0.19 0.19 0.20 0.19 0.17 0.18 0.17 0.14 0.13 0.16 0.22 0.20 0.15 0.15 0.17 0.16 0.16 0.18 0.20 0.20 0.28 0.51 0.46 0.38 0.37 0.47 0.59 0.77 0.80 0.75 0.77 0.83 0.82 0.79 0.83 0.91 0.99 1.02 1.06 1.08 1.11 1.14 1.26 1.38 1.46 1.42 1.44 1.55 1.55 1.57 1.55 1.54 1.56 1.56 1.56 1.53 1.51 1.48 1.43 1.34 1.30 1.25 1.25 1.26 1.31 1.37 1.40 1.44 1.52 1.53 1.53 1.53 1.50 1.50
0.20 0.26 0.29 0.28 0.26 0.28 0.28 0.27 0.28 0.26 0.23 0.20 0.18 0.22 0.21 0.18 0.19 0.19 0.17 0.15 0.16 0.15 0.18 0.19 0.13 0.11 0.13 0.12 0.13 0.15 0.17 0.17 0.25 0.47 0.46 0.40 0.35 0.43 0.65 0.67 0.73 0.66 0.70 0.81 0.88 0.87 0.83 0.90 0.96 0.98 1.03 1.08 1.09 1.15 1.31 1.44 1.47 1.48 1.49 1.50 1.49 1.51 1.52 1.53 1.54 1.55 1.53 1.50 1.52 1.47 1.42 1.35 1.29 1.25 1.32 1.42 1.45 1.44 1.45 1.49 1.50 1.49 1.51 1.51 1.49 1.47
0.20 0.26 0.28 0.28 0.25 0.26 0.27 0.26 0.28 0.27 0.24 0.19 0.23 0.23 0.20 0.20 0.21 0.21 0.18 0.18 0.17 0.19 0.19 0.18 0.15 0.11 0.10 0.11 0.14 0.17 0.15 0.16 0.30 0.42 0.44 0.46 0.41 0.41 0.56 0.61 0.65 0.63 0.63 0.70 0.81 0.84 0.85 0.90 0.92 0.93 1.01 1.08 1.14 1.21 1.35 1.45 1.47 1.44 1.44 1.50 1.48 1.47 1.47 1.52 1.53 1.52 1.53 1.47 1.48 1.47 1.41 1.35 1.29 1.28 1.31 1.36 1.39 1.45 1.46 1.44 1.45 1.47 1.48 1.50 1.47 1.42
0.22 0.24 0.27 0.26 0.25 0.25 0.25 0.27 0.29 0.30 0.23 0.22 0.26 0.24 0.20 0.20 0.20 0.19 0.18 0.17 0.17 0.18 0.16 0.17 0.17 0.14 0.11 0.11 0.18 0.20 0.15 0.16 0.31 0.38 0.42 0.46 0.51 0.51 0.51 0.57 0.55 0.57 0.65 0.69 0.72 0.81 0.88 0.85 0.91 0.96 0.99 1.11 1.21 1.25 1.35 1.41 1.43 1.46 1.48 1.47 1.43 1.41 1.42 1.43 1.47 1.49 1.51 1.51 1.49 1.48 1.42 1.35 1.36 1.38 1.38 1.40 1.42 1.42 1.44 1.39 1.42 1.43 1.45 1.45 1.42 1.40
0.25 0.25 0.29 0.30 0.28 0.25 0.25 0.28 0.28 0.28 0.23 0.26 0.29 0.24 0.22 0.21 0.20 0.19 0.18 0.17 0.17 0.19 0.17 0.18 0.18 0.14 0.11 0.11 0.12 0.15 0.15 0.17 0.26 0.35 0.44 0.47 0.50 0.45 0.44 0.48 0.51 0.58 0.67 0.73 0.76 0.82 0.88 0.89 0.94 1.01 1.05 1.10 1.17 1.27 1.39 1.43 1.46 1.42 1.40 1.44 1.45 1.36 1.36 1.39 1.43 1.47 1.48 1.50 1.50 1.45 1.39 1.32 1.35 1.41 1.40 1.41 1.38 1.39 1.40 1.36 1.37 1.38 1.39 1.38 1.38 1.37
0.28 0.31 0.35 0.30 0.27 0.26 0.25 0.26 0.29 0.29 0.27 0.30 0.26 0.24 0.24 0.20 0.19 0.20 0.19 0.17 0.19 0.19 0.18 0.16 0.17 0.14 0.10 0.12 0.12 0.12 0.14 0.18 0.28 0.37 0.49 0.51 0.50 0.41 0.41 0.45 0.47 0.57 0.65 0.72 0.78 0.83 0.86 0.92 0.97 1.06 1.01 1.06 1.17 1.29 1.37 1.39 1.38 1.38 1.39 1.40 1.33 1.30 1.35 1.39 1.42 1.46 1.48 1.51 1.48 1.41 1.36 1.35 1.36 1.36 1.34 1.33 1.34 1.36 1.37 1.34 1.34 1.34 1.34 1.36 1.35 1.33
0.30 0.32 0.32 0.35 0.33 0.30 0.28 0.28 0.31 0.30 0.30 0.28 0.23 0.24 0.23 0.20 0.19 0.18 0.18 0.20 0.19 0.17 0.16 0.15 0.15 0.14 0.11 0.13 0.14 0.14 0.14 0.22 0.31 0.34 0.41 0.48 0.49 0.44 0.44 0.44 0.46 0.55 0.65 0.73 0.84 0.82 0.84 0.88 0.96 1.01 0.99 1.03 1.12 1.25 1.32 1.34 1.34 1.34 1.36 1.36 1.31 1.29 1.31 1.37 1.44 1.47 1.50 1.50 1.46 1.39 1.36 1.35 1.34 1.33 1.32 1.32 1.32 1.34 1.33 1.33 1.31 1.32 1.31 1.32 1.32 1.28
0.29 0.30 0.30 0.34 0.34 0.30 0.29 0.27 0.26 0.25 0.25 0.24 0.23 0.24 0.19 0.17 0.16 0.13 0.14 0.15 0.16 0.13 0.15 0.17 0.13 0.12 0.16 0.17 0.17 0.16 0.16 0.18 0.36 0.40 0.43 0.48 0.48 0.46 0.42 0.39 0.45 0.57 0.63 0.74 0.79 0.88 0.83 0.79 0.86 0.89 0.92 1.00 1.10 1.18 1.24 1.28 1.30 1.33 1.33 1.34 1.28 1.24 1.28 1.37 1.44 1.47 1.48 1.45 1.42 1.38 1.36 1.36 1.37 1.37 1.38 1.37 1.36 1.38 1.35 1.33 1.29 1.27 1.25 1.28 1.25 1.21
0.30 0.36 0.33 0.33 0.33 0.32 0.28 0.22 0.21 0.20 0.23 0.22 0.22 0.22 0.18 0.16 0.14 0.13 0.15 0.16 0.15 0.15 0.18 0.16 0.14 0.15 0.20 0.23 0.23 0.20 0.20 0.18 0.37 0.46 0.44 0.49 0.46 0.47 0.37 0.37 0.46 0.52 0.63 0.72 0.79 0.87 0.79 0.75 0.81 0.86 0.88 0.94 1.05 1.12 1.17 1.24 1.26 1.28 1.30 1.31 1.23 1.23 1.28 1.36 1.41 1.43 1.42 1.44 1.42 1.42 1.46 1.45 1.42 1.40 1.42 1.40 1.37 1.37 1.36 1.34 1.29 1.27 1.25 1.24 1.22 1.18
0.23 0.25 0.30 0.30 0.26 0.31 0.29 0.24 0.22 0.21 0.22 0.21 0.24 0.22 0.20 0.19 0.17 0.14 0.15 0.14 0.15 0.15 0.17 0.21 0.20 0.16 0.15 0.15 0.23 0.22 0.22 0.22 0.33 0.47 0.45 0.48 0.46 0.44 0.38 0.36 0.46 0.51 0.58 0.69 0.79 0.82 0.75 0.75 0.80 0.81 0.85 0.90 0.96 1.03 1.10 1.18 1.23 1.25 1.26 1.24 1.20 1.21 1.28 1.33 1.37 1.40 1.38 1.38 1.42 1.45 1.45 1.44 1.44 1.42 1.41 1.40 1.38 1.37 1.34 1.32 1.28 1.26 1.26 1.24 1.21 1.17
0.25 0.25 0.28 0.30 0.30 0.32 0.28 0.28 0.25 0.23 0.21 0.22 0.23 0.24 0.21 0.21 0.23 0.18 0.17 0.17 0.17 0.18 0.19 0.19 0.18 0.20 0.18 0.27 0.33 0.30 0.24 0.28 0.41 0.50 0.46 0.45 0.48 0.44 0.39 0.35 0.44 0.53 0.55 0.67 0.74 0.83 0.75 0.75 0.81 0.82 0.83 0.87 0.90 0.97 1.07 1.13 1.22 1.25 1.26 1.24 1.26 1.27 1.29 1.32 1.37 1.39 1.40 1.40 1.45 1.46 1.45 1.43 1.45 1.44 1.42 1.40 1.40 1.38 1.34 1.30 1.27 1.24 1.24 1.24 1.22 1.18
0.27 0.24 0.28 0.29 0.32 0.30 0.29 0.28 0.25 0.24 0.18 0.21 0.23 0.22 0.23 0.25 0.25 0.21 0.21 0.26 0.23 0.17 0.15 0.19 0.16 0.17 0.21 0.27 0.30 0.35 0.31 0.28 0.43 0.50 0.47 0.45 0.46 0.45 0.41 0.37 0.42 0.53 0.55 0.62 0.74 0.78 0.72 0.75 0.81 0.81 0.82 0.85 0.87 0.91 0.97 1.06 1.17 1.23 1.28 1.25 1.28 1.32 1.33 1.36 1.39 1.39 1.43 1.45 1.44 1.42 1.43 1.43 1.42 1.41 1.39 1.37 1.36 1.34 1.30 1.27 1.24 1.23 1.22 1.22 1.18 1.13
0.23 0.26 0.29 0.28 0.26 0.31 0.32 0.30 0.27 0.25 0.24 0.22 0.20 0.22 0.25 0.26 0.26 0.23 0.18 0.20 0.18 0.16 0.15 0.19 0.16 0.14 0.17 0.18 0.26 0.33 0.31 0.27 0.41 0.45 0.43 0.39 0.39 0.38 0.38 0.40 0.45 0.52 0.53 0.58 0.72 0.79 0.71 0.68 0.73 0.78 0.82 0.85 0.84 0.88 0.95 1.02 1.16 1.23 1.29 1.30 1.29 1.29 1.30 1.36 1.37 1.38 1.42 1.44 1.42 1.40 1.39 1.40 1.40 1.39 1.38 1.37 1.33 1.31 1.26 1.24 1.22 1.22 1.18 1.15 1.12 1.06
0.30 0.23 0.25 0.26 0.27 0.31 0.33 0.31 0.27 0.26 0.25 0.21 0.20 0.25 0.21 0.19 0.19 0.24 0.22 0.18 0.16 0.15 0.15 0.18 0.19 0.17 0.16 0.18 0.30 0.30 0.28 0.33 0.39 0.39 0.35 0.31 0.31 0.32 0.38 0.43 0.48 0.56 0.56 0.63 0.74 0.79 0.69 0.70 0.72 0.78 0.79 0.85 0.88 0.91 0.97 1.02 1.14 1.22 1.25 1.31 1.30 1.30 1.34 1.34 1.36 1.39 1.42 1.44 1.41 1.38 1.36 1.36 1.37 1.38 1.37 1.35 1.31 1.26 1.22 1.21 1.21 1.19 1.16 1.12 1.05 0.97
0.28 0.25 0.24 0.29 0.27 0.30 0.30 0.28 0.22 0.23 0.24 0.24 0.24 0.21 0.22 0.22 0.21 0.21 0.22 0.21 0.19 0.15 0.14 0.17 0.22 0.19 0.20 0.20 0.29 0.33 0.31 0.29 0.33 0.36 0.34 0.31 0.35 0.41 0.46 0.50 0.54 0.59 0.63 0.64 0.68 0.77 0.69 0.68 0.70 0.75 0.78 0.80 0.85 0.90 0.95 1.00 1.09 1.19 1.24 1.26 1.29 1.34 1.34 1.32 1.30 1.33 1.33 1.38 1.36 1.34 1.34 1.36 1.38 1.39 1.36 1.33 1.27 1.22 1.21 1.21 1.21 1.19 1.10 1.04 0.98 0.92
0.25 0.35 0.22 0.25 0.26 0.28 0.24 0.26 0.25 0.24 0.21 0.21 0.21 0.19 0.19 0.20 0.23 0.23 0.24 0.22 0.20 0.16 0.16 0.16 0.17 0.19 0.23 0.24 0.24 0.32 0.34 0.31 0.30 0.32 0.37 0.39 0.44 0.47 0.47 0.45 0.53 0.61 0.62 0.63 0.66 0.74 0.69 0.70 0.74 0.75 0.81 0.87 0.91 0.95 0.97 0.99 1.03 1.15 1.22 1.23 1.28 1.28 1.27 1.25 1.29 1.31 1.32 1.35 1.34 1.32 1.32 1.33 1.35 1.35 1.33 1.28 1.24 1.20 1.19 1.22 1.20 1.14 1.07 1.02 0.93 0.90
0.26 0.28 0.26 0.22 0.24 0.25 0.26 0.28 0.28 0.25 0.24 0.21 0.20 0.19 0.19 0.18 0.18 0.17 0.17 0.22 0.23 0.19 0.17 0.16 0.14 0.19 0.23 0.27 0.26 0.26 0.37 0.41 0.34 0.33 0.36 0.36 0.37 0.43 0.45 0.50 0.52 0.53 0.62 0.64 0.66 0.68 0.67 0.70 0.74 0.77 0.83 0.90 0.91 0.93 0.94 0.98 1.03 1.12 1.17 1.19 1.26 1.29 1.28 1.26 1.28 1.31 1.33 1.35 1.34 1.32 1.33 1.33 1.33 1.31 1.27 1.23 1.20 1.17 1.19 1.20 1.16 1.11 1.06 0.97 0.94 0.88
0.31 0.32 0.30 0.23 0.23 0.23 0.27 0.28 0.31 0.29 0.26 0.24 0.23 0.20 0.20 0.20 0.20 0.18 0.16 0.19 0.22 0.21 0.21 0.18 0.15 0.16 0.28 0.29 0.26 0.32 0.36 0.40 0.38 0.34 0.34 0.33 0.33 0.40 0.47 0.48 0.49 0.59 0.66 0.63 0.63 0.66 0.68 0.69 0.72 0.74 0.79 0.84 0.88 0.91 0.95 0.97 1.01 1.08 1.16 1.20 1.25 1.28 1.30 1.30 1.30 1.34 1.36 1.35 1.33 1.31 1.31 1.30 1.27 1.26 1.24 1.19 1.16 1.16 1.18 1.18 1.15 1.11 1.04 0.99 0.93 0.89
0.33 0.31 0.27 0.23 0.24 0.25 0.27 0.29 0.29 0.29 0.27 0.25 0.25 0.24 0.22 0.21 0.23 0.22 0.22 0.24 0.22 0.21 0.18 0.18 0.17 0.19 0.32 0.33 0.33 0.33 0.33 0.35 0.39 0.38 0.35 0.32 0.31 0.35 0.42 0.42 0.51 0.73 0.78 0.70 0.67 0.69 0.69 0.72 0.74 0.77 0.79 0.83 0.88 0.90 0.93 0.97 1.01 1.09 1.16 1.21 1.25 1.27 1.31 1.31 1.32 1.34 1.33 1.32 1.32 1.31 1.28 1.24 1.23 1.23 1.21 1.16 1.15 1.14 1.17 1.17 1.14 1.11 1.05 1.01 0.94 0.89
0.26 0.30 0.27 0.20 0.21 0.21 0.22 0.25 0.27 0.28 0.27 0.24 0.23 0.24 0.24 0.23 0.24 0.24 0.24 0.24 0.21 0.20 0.19 0.18 0.17 0.19 0.34 0.37 0.35 0.35 0.32 0.29 0.31 0.45 0.48 0.55 0.47 0.37 0.39 0.49 0.69 0.78 0.80 0.76 0.66 0.66 0.68 0.70 0.70 0.73 0.78 0.83 0.87 0.92 0.96 0.98 1.01 1.08 1.16 1.22 1.25 1.28 1.32 1.32 1.33 1.34 1.34 1.32 1.30 1.28 1.24 1.21 1.21 1.20 1.18 1.15 1.15 1.14 1.16 1.15 1.12 1.10 1.04 1.00 0.93 0.89
0.27 0.27 0.28 0.19 0.17 0.16 0.16 0.17 0.19 0.21 0.23 0.24 0.23 0.22 0.23 0.22 0.23 0.24 0.21 0.22 0.20 0.21 0.19 0.18 0.20 0.26 0.34 0.35 0.35 0.38 0.39 0.38 0.40 0.46 0.49 0.57 0.64 0.61 0.65 0.71 0.78 0.74 0.75 0.77 0.67 0.65 0.65 0.67 0.69 0.76 0.81 0.85 0.90 0.93 0.97 0.99 1.02 1.09 1.18 1.24 1.29 1.29 1.31 1.32 1.32 1.33 1.32 1.30 1.27 1.24 1.20 1.19 1.20 1.19 1.17 1.16 1.14 1.14 1.15 1.13 1.10 1.07 1.03 0.98 0.93 0.89
0.27 0.30 0.30 0.27 0.20 0.19 0.20 0.21 0.23 0.24 0.25 0.23 0.24 0.23 0.22 0.23 0.23 0.23 0.24 0.21 0.19 0.22 0.21 0.21 0.23 0.24 0.34 0.35 0.31 0.36 0.41 0.42 0.45 0.46 0.44 0.46 0.53 0.56 0.58 0.62 0.68 0.71 0.75 0.75 0.66 0.64 0.66 0.68 0.67 0.74 0.82 0.87 0.93 0.96 0.99 1.00 1.04 1.10 1.20 1.25 1.30 1.32 1.31 1.32 1.30 1.29 1.28 1.28 1.25 1.22 1.19 1.18 1.19 1.19 1.19 1.16 1.15 1.15 1.14 1.12 1.09 1.05 1.00 0.97 0.94 0.89
0.28 0.29 0.31 0.30 0.27 0.22 0.24 0.24 0.25 0.25 0.24 0.24 0.23 0.22 0.23 0.22 0.22 0.22 0.21 0.20 0.24 0.24 0.21 0.24 0.24 0.23 0.26 0.34 0.35 0.35 0.38 0.40 0.42 0.42 0.42 0.44 0.44 0.46 0.57 0.65 0.68 0.79 0.74 0.70 0.66 0.63 0.61 0.64 0.69 0.77 0.84 0.88 0.93 0.98 1.02 1.05 1.10 1.14 1.21 1.24 1.29 1.30 1.31 1.32 1.30 1.27 1.26 1.26 1.23 1.20 1.18 1.19 1.21 1.21 1.20 1.17 1.16 1.14 1.12 1.11 1.09 1.04 0.99 0.96 0.94 0.87
0.27 0.26 0.30 0.32 0.31 0.29 0.27 0.24 0.24 0.24 0.24 0.25 0.26 0.25 0.24 0.22 0.21 0.21 0.22 0.24 0.25 0.22 0.22 0.26 0.27 0.24 0.25 0.30 0.39 0.38 0.41 0.48 0.56 0.49 0.50 0.50 0.52 0.58 0.61 0.68 0.68 0.69 0.69 0.63 0.63 0.64 0.64 0.65 0.69 0.79 0.83 0.89 0.96 0.99 1.03 1.06 1.09 1.14 1.21 1.26 1.28 1.29 1.29 1.32 1.30 1.26 1.25 1.24 1.21 1.19 1.20 1.20 1.21 1.22 1.20 1.18 1.15 1.12 1.10 1.09 1.08 1.03 0.98 0.96 0.92 0.87
0.30 0.26 0.29 0.31 0.30 0.29 0.27 0.24 0.23 0.24 0.23 0.24 0.24 0.25 0.25 0.23 0.22 0.22 0.24 0.25 0.24 0.24 0.27 0.26 0.25 0.24 0.25 0.26 0.34 0.42 0.56 0.56 0.55 0.53 0.47 0.44 0.57 0.61 0.63 0.64 0.65 0.69 0.65 0.61 0.61 0.64 0.66 0.71 0.76 0.82 0.84 0.90 0.95 0.99 1.01 1.03 1.05 1.10 1.13 1.16 1.21 1.23 1.28 1.30 1.28 1.25 1.23 1.21 1.20 1.20 1.21 1.19 1.20 1.19 1.18 1.16 1.14 1.11 1.10 1.07 1.07 1.02 0.97 0.94 0.91 0.87
0.29 0.26 0.31 0.29 0.27 0.27 0.28 0.27 0.28 0.26 0.24 0.22 0.23 0.24 0.25 0.25 0.24 0.24 0.24 0.25 0.24 0.26 0.27 0.26 0.26 0.26 0.28 0.28 0.30 0.42 0.54 0.49 0.47 0.41 0.39 0.40 0.48 0.57 0.60 0.64 0.68 0.67 0.65 0.63 0.65 0.67 0.69 0.75 0.79 0.82 0.86 0.91 0.96 0.99 1.02 1.04 1.06 1.10 1.13 1.15 1.15 1.17 1.23 1.26 1.25 1.25 1.23 1.20 1.21 1.21 1.20 1.18 1.16 1.17 1.15 1.15 1.13 1.11 1.09 1.06 1.05 1.01 0.97 0.94 0.90 0.87
0.30 0.31 0.34 0.31 0.27 0.27 0.29 0.28 0.27 0.25 0.25 0.23 0.22 0.23 0.23 0.23 0.22 0.23 0.22 0.25 0.25 0.25 0.25 0.24 0.24 0.26 0.31 0.31 0.32 0.34 0.36 0.41 0.44 0.42 0.37 0.43 0.47 0.53 0.56 0.60 0.68 0.70 0.69 0.69 0.70 0.71 0.72 0.75 0.79 0.83 0.87 0.93 0.97 1.00 1.02 1.03 1.04 1.06 1.08 1.12 1.13 1.17 1.21 1.22 1.23 1.23 1.22 1.21 1.20 1.19 1.18 1.16 1.15 1.14 1.14 1.13 1.11 1.10 1.09 1.05 1.02 0.98 0.96 0.94 0.90 0.87
0.33 0.34 0.32 0.30 0.25 0.26 0.31 0.32 0.32 0.31 0.27 0.24 0.24 0.23 0.22 0.23 0.24 0.25 0.25 0.25 0.25 0.25 0.22 0.21 0.21 0.28 0.28 0.29 0.30 0.31 0.30 0.30 0.35 0.39 0.38 0.39 0.51 0.51 0.56 0.61 0.67 0.73 0.74 0.75 0.74 0.73 0.74 0.77 0.84 0.88 0.93 0.96 0.97 0.99 1.02 1.05 1.03 1.02 1.07 1.09 1.13 1.16 1.18 1.18 1.19 1.20 1.20 1.20 1.18 1.17 1.16 1.15 1.12 1.12 1.11 1.11 1.10 1.10 1.09 1.03 1.00 0.96 0.93 0.93 0.91 0.88
0.36 0.36 0.34 0.34 0.26 0.27 0.33 0.33 0.33 0.28 0.21 0.20 0.27 0.30 0.28 0.25 0.24 0.24 0.24 0.24 0.26 0.26 0.24 0.27 0.28 0.28 0.26 0.27 0.28 0.29 0.29 0.30 0.35 0.49 0.53 0.52 0.55 0.55 0.53 0.60 0.69 0.76 0.76 0.75 0.75 0.76 0.81 0.86 0.90 0.95 0.96 0.98 1.01 1.04 1.08 1.09 1.04 1.05 1.11 1.13 1.15 1.14 1.16 1.16 1.19 1.20 1.20 1.19 1.17 1.16 1.16 1.15 1.12 1.09 1.10 1.10 1.10 1.09 1.07 1.03 1.00 0.96 0.92 0.93 0.90 0.86
0.34 0.35 0.35 0.37 0.30 0.29 0.34 0.33 0.27 0.22 0.21 0.28 0.32 0.30 0.30 0.29 0.27 0.26 0.27 0.27 0.26 0.25 0.24 0.24 0.25 0.25 0.26 0.27 0.27 0.29 0.29 0.32 0.48 0.53 0.46 0.45 0.44 0.51 0.55 0.61 0.73 0.78 0.75 0.76 0.76 0.78 0.83 0.87 0.91 0.94 0.98 0.99 1.00 1.05 1.06 1.06 1.07 1.08 1.10 1.13 1.12 1.14 1.15 1.18 1.18 1.19 1.18 1.15 1.14 1.14 1.14 1.14 1.11 1.09 1.08 1.08 1.09 1.08 1.05 1.03 1.00 0.96 0.93 0.93 0.89 0.87
0.32 0.32 0.34 0.34 0.34 0.34 0.30 0.29 0.20 0.20 0.30 0.39 0.36 0.34 0.32 0.30 0.29 0.28 0.26 0.27 0.27 0.26 0.25 0.24 0.24 0.25 0.26 0.26 0.25 0.27 0.30 0.39 0.48 0.46 0.42 0.43 0.51 0.54 0.56 0.59 0.73 0.80 0.80 0.81 0.81 0.83 0.86 0.90 0.90 0.93 0.96 1.02 1.03 1.04 1.04 1.02 1.05 1.05 1.07 1.14 1.11 1.11 1.14 1.16 1.17 1.16 1.14 1.12 1.13 1.13 1.14 1.12 1.10 1.09 1.07 1.06 1.06 1.06 1.04 1.03 0.99 0.96 0.96 0.92 0.89 0.87
0.35 0.37 0.38 0.32 0.38 0.29 0.30 0.27 0.24 0.36 0.34 0.32 0.31 0.29 0.31 0.27 0.26 0.25 0.22 0.24 0.27 0.28 0.26 0.25 0.24 0.24 0.25 0.25 0.25 0.28 0.33 0.41 0.38 0.35 0.38 0.39 0.48 0.55 0.57 0.63 0.75 0.84 0.87 0.91 0.91 0.90 0.92 0.96 0.97 1.02 1.02 1.01 1.02 1.01 1.01 1.03 1.04 1.06 1.07 1.08 1.12 1.14 1.16 1.17 1.14 1.11 1.10 1.09 1.12 1.13 1.14 1.13 1.10 1.08 1.06 1.04 1.04 1.03 1.03 1.01 0.98 0.98 0.97 0.90 0.85 0.81
0.39 0.34 0.38 0.32 0.32 0.35 0.30 0.26 0.24 0.26 0.22 0.26 0.46 0.43 0.35 0.35 0.33 0.30 0.25 0.23 0.27 0.28 0.28 0.26 0.24 0.24 0.25 0.25 0.26 0.30 0.41 0.35 0.29 0.30 0.36 0.53 0.61 0.61 0.66 0.70 0.81 0.91 0.95 0.94 0.95 0.98 0.98 1.00 1.01 1.03 1.02 1.02 1.03 1.05 1.07 1.06 1.05 1.05 1.07 1.09 1.12 1.12 1.13 1.12 1.10 1.11 1.11 1.11 1.13 1.13 1.14 1.13 1.11 1.07 1.05 1.03 1.02 1.02 1.02 1.02 1.00 0.98 0.98 0.89 0.83 0.81
0.39 0.39 0.39 0.35 0.33 0.32 0.33 0.28 0.28 0.22 0.29 0.46 0.43 0.45 0.41 0.43 0.39 0.36 0.26 0.22 0.28 0.29 0.29 0.28 0.26 0.26 0.26 0.26 0.29 0.35 0.36 0.30 0.29 0.35 0.51 0.59 0.64 0.66 0.71 0.77 0.81 0.90 0.98 0.97 0.95 0.94 0.96 0.98 0.98 0.97 1.00 1.00 0.96 0.99 1.01 1.02 1.02 1.02 1.03 1.07 1.08 1.09 1.08 1.07 1.09 1.10 1.11 1.12 1.14 1.16 1.14 1.13 1.10 1.07 1.05 1.03 1.03 1.02 1.00 1.00 1.00 1.00 1.00 0.93 0.87 0.82
0.36 0.35 0.34 0.34 0.32 0.31 0.32 0.30 0.28 0.32 0.33 0.42 0.48 0.48 0.46 0.40 0.37 0.33 0.19 0.20 0.40 0.29 0.29 0.27 0.27 0.27 0.28 0.29 0.31 0.39 0.36 0.29 0.28 0.51 0.58 0.68 0.69 0.73 0.78 0.80 0.83 0.91 0.97 1.02 0.99 1.01 0.99 0.97 0.94 0.93 0.92 0.92 0.94 1.01 1.01 1.03 1.02 1.01 1.02 1.04 1.07 1.06 1.06 1.08 1.10 1.13 1.15 1.14 1.14 1.13 1.10 1.09 1.06 1.05 1.04 1.02 1.02 1.01 1.00 1.01 1.00 1.00 0.97 0.94 0.90 0.85
0.31 0.34 0.35 0.33 0.32 0.32 0.33 0.31 0.36 0.36 0.44 0.54 0.49 0.45 0.45 0.45 0.35 0.21 0.18 0.32 0.48 0.47 0.50 0.40 0.30 0.28 0.30 0.31 0.32 0.38 0.37 0.39 0.55 0.63 0.64 0.70 0.74 0.79 0.86 0.88 0.80 0.94 0.96 0.98 0.96 0.95 0.94 0.95 0.92 0.92 0.93 0.97 0.99 1.01 1.03 1.02 1.00 0.99 1.02 1.04 1.04 1.03 1.06 1.11 1.14 1.13 1.13 1.10 1.08 1.05 1.04 1.04 1.04 1.03 1.03 1.03 1.02 1.00 0.99 0.98 0.97 0.96 0.93 0.89 0.85 0.80
0.32 0.35 0.38 0.39 0.33 0.32 0.34 0.32 0.35 0.37 0.46 0.58 0.52 0.49 0.46 0.36 0.22 0.20 0.45 0.63 0.59 0.55 0.55 0.50 0.45 0.41 0.44 0.38 0.42 0.42 0.43 0.51 0.59 0.59 0.62 0.67 0.75 0.83 0.85 0.91 0.91 0.93 1.00 1.00 1.00 0.96 0.95 0.96 0.97 0.93 0.96 0.99 0.99 1.01 1.02 1.00 0.97 0.98 0.99 0.98 0.98 1.02 1.09 1.11 1.11 1.07 1.03 1.00 1.01 1.00 1.01 1.03 1.03 1.03 1.02 1.02 1.01 0.98 0.95 0.94 0.94 0.92 0.89 0.84 0.79 0.74
0.32 0.32 0.33 0.33 0.35 0.36 0.34 0.33 0.32 0.27 0.42 0.59 0.59 0.48 0.46 0.42 0.41 0.55 0.62 0.63 0.62 0.52 0.57 0.60 0.44 0.46 0.41 0.39 0.44 0.43 0.54 0.60 0.58 0.54 0.57 0.73 0.76 0.83 0.82 0.86 0.97 0.96 0.97 0.97 0.95 1.00 0.99 0.95 0.91 0.92 0.96 0.98 0.99 0.99 0.99 0.97 0.94 0.95 0.95 0.92 0.97 1.04 1.06 1.05 1.04 1.02 0.99 0.99 0.98 0.98 1.00 1.01 1.02 1.02 1.02 1.02 1.02 0.99 0.95 0.93 0.91 0.90 0.89 0.84 0.80 0.78
0.41 0.32 0.34 0.35 0.39 0.31 0.31 0.30 0.32 0.42 0.48 0.58 0.63 0.43 0.54 0.58 0.67 0.67 0.60 0.58 0.61 0.63 0.64 0.64 0.58 0.51 0.45 0.42 0.41 0.42 0.51 0.49 0.49 0.53 0.62 0.74 0.79 0.86 0.86 0.89 0.98 0.98 0.98 0.98 1.00 0.99 0.98 0.96 0.96 0.94 0.95 0.97 0.98 0.98 0.98 0.96 0.92 0.90 0.89 0.91 1.01 1.03 1.03 1.04 1.03 1.00 0.98 0.98 0.97 0.97 0.98 0.98 0.98 0.99 0.99 0.98 0.96 0.93 0.90 0.89 0.88 0.90 0.87 0.83 0.79 0.75
0.41 0.36 0.41 0.35 0.45 0.37 0.37 0.38 0.46 0.50 0.52 0.62 0.61 0.62 0.70 0.73 0.74 0.71 0.65 0.64 0.61 0.62 0.67 0.61 0.58 0.52 0.49 0.48 0.50 0.55 0.47 0.50 0.57 0.59 0.68 0.75 0.79 0.82 0.84 0.87 0.89 0.89 0.87 0.88 0.88 0.93 0.95 0.96 0.93 0.94 0.93 0.96 0.97 0.98 0.97 0.97 0.92 0.90 0.88 0.95 0.99 0.98 0.98 0.98 0.96 0.94 0.94 0.95 0.94 0.95 0.95 0.96 0.96 0.96 0.95 0.94 0.91 0.86 0.83 0.84 0.89 0.87 0.85 0.81 0.78 0.73
0.49 0.46 0.50 0.43 0.41 0.47 0.48 0.50 0.49 0.49 0.52 0.62 0.64 0.73 0.70 0.74 0.76 0.73 0.64 0.63 0.64 0.66 0.69 0.67 0.63 0.59 0.57 0.59 0.57 0.51 0.53 0.55 0.60 0.64 0.73 0.79 0.83 0.86 0.90 0.93 0.93 0.91 0.88 0.86 0.87 0.91 0.93 0.96 0.96 0.94 0.94 0.95 0.96 0.94 0.95 0.96 0.94 0.88 0.93 0.99 1.01 1.00 0.96 0.92 0.91 0.90 0.90 0.90 0.90 0.91 0.92 0.93 0.95 0.96 0.96 0.94 0.91 0.87 0.86 0.87 0.86 0.83 0.81 0.79 0.75 0.71
0.39 0.46 0.45 0.37 0.47 0.38 0.35 0.48 0.45 0.47 0.55 0.62 0.65 0.73 0.77 0.78 0.77 0.74 0.70 0.68 0.64 0.65 0.67 0.72 0.70 0.68 0.65 0.62 0.63 0.60 0.57 0.63 0.63 0.68 0.73 0.77 0.83 0.86 0.86 0.91 0.94 0.94 0.88 0.84 0.91 0.92 0.93 0.94 0.90 0.90 0.91 0.89 0.92 0.93 0.93 0.95 0.95 0.95 0.98 0.98 1.00 0.98 0.95 0.96 0.93 0.91 0.90 0.88 0.89 0.90 0.92 0.93 0.94 0.94 0.94 0.92 0.88 0.85 0.86 0.88 0.86 0.82 0.78 0.76 0.72 0.69
0.34 0.49 0.41 0.41 0.41 0.38 0.38 0.50 0.51 0.54 0.59 0.69 0.72 0.66 0.68 0.71 0.74 0.82 0.75 0.71 0.69 0.68 0.65 0.66 0.68 0.67 0.70 0.68 0.67 0.63 0.61 0.65 0.69 0.71 0.74 0.78 0.83 0.86 0.90 0.93 0.93 0.94 0.98 0.98 0.97 0.97 0.96 0.95 0.90 0.88 0.88 0.89 0.91 0.93 0.93 0.93 0.94 0.96 0.98 0.98 0.98 1.00 0.97 0.94 0.93 0.91 0.91 0.91 0.91 0.92 0.94 0.94 0.95 0.94 0.93 0.90 0.86 0.83 0.84 0.86 0.85 0.80 0.77 0.75 0.72 0.67
0.53 0.53 0.36 0.41 0.38 0.42 0.42 0.44 0.51 0.51 0.61 0.63 0.69 0.69 0.74 0.74 0.74 0.82 0.80 0.74 0.70 0.71 0.69 0.64 0.61 0.62 0.64 0.67 0.71 0.70 0.67 0.69 0.75 0.78 0.76 0.80 0.84 0.89 0.92 0.93 0.95 0.96 0.99 0.97 0.97 0.96 0.96 0.95 0.92 0.90 0.89 0.89 0.91 0.91 0.90 0.91 0.93 0.95 0.96 0.97 1.00 0.99 0.92 0.90 0.92 0.92 0.92 0.92 0.94 0.94 0.97 0.98 0.96 0.94 0.91 0.88 0.87 0.88 0.88 0.86 0.85 0.83 0.81 0.81 0.76 0.70
0.46 0.40 0.45 0.40 0.37 0.40 0.42 0.51 0.61 0.45 0.48 0.60 0.66 0.68 0.69 0.78 0.81 0.79 0.75 0.73 0.74 0.71 0.72 0.69 0.66 0.64 0.61 0.63 0.62 0.64 0.68 0.70 0.75 0.80 0.80 0.87 0.89 0.92 0.94 0.95 0.98 0.99 1.00 1.02 1.03 1.00 1.00 0.99 0.97 0.93 0.90 0.89 0.91 0.90 0.89 0.90 0.92 0.95 0.95 0.96 1.00 0.97 0.90 0.91 0.92 0.92 0.90 0.92 0.92 0.93 0.94 0.95 0.95 0.93 0.90 0.89 0.88 0.89 0.90 0.92 0.90 0.86 0.82 0.80 0.80 0.75
0.47 0.52 0.51 0.42 0.38 0.36 0.54 0.61 0.67 0.62 0.64 0.67 0.68 0.74 0.74 0.84 0.79 0.70 0.68 0.68 0.69 0.75 0.77 0.71 0.66 0.66 0.62 0.61 0.65 0.63 0.60 0.66 0.76 0.79 0.78 0.82 0.86 0.94 0.97 0.96 0.97 1.00 1.00 1.02 1.01 0.98 1.00 1.02 1.02 0.96 0.92 0.92 0.93 0.92 0.92 0.93 0.94 0.95 0.94 0.94 0.97 1.00 0.95 0.91 0.92 0.92 0.92 0.93 0.92 0.92 0.93 0.94 0.94 0.93 0.92 0.92 0.92 0.90 0.87 0.84 0.86 0.87 0.86 0.84 0.81 0.75
Wind_Speed
39 39 42 44 46 49 51 51 52 49 47 46 44 42 42 42 42 42 40 41 39 35 37 41 43 42 39 40 39 35 33 34 34 33 31 31 30 30 30 29 29 28 27 26 26 26 25 23 23 22 22 22 22 22 21 20 19 19 18 18 19 19 18 18 17 17 16 16 16 15 15 16 16 15 15 14 13 13 14 14 14 14 13 13 13 12
39 41 43 46 47 49 50 50 50 48 47 44 42 41 41 41 42 43 40 39 40 38 37 37 40 41 39 39 40 39 36 35 36 35 33 32 31 30 30 31 30 29 28 27 26 26 25 24 23 23 23 22 22 22 22 21 20 20 19 19 19 19 18 18 17 17 16 16 15 16 16 16 16 15 15 14 14 14 14 14 14 14 13 13 13 12
38 42 45 46 46 47 47 48 48 48 47 43 40 40 40 40 40 41 41 39 37 38 39 37 37 38 38 38 37 39 39 37 37 37 36 34 33 32 31 31 31 30 29 28 27 26 25 24 23 23 23 23 23 22 22 21 21 20 20 20 19 19 18 17 17 17 16 16 15 16 16 15 15 15 15 15 15 15 15 15 15 15 14 13 13 13
37 41 45 45 45 46 45 45 47 46 45 43 41 39 38 39 39 38 40 40 37 36 38 37 35 35 35 36 36 38 40 38 37 38 38 37 35 34 33 32 32 31 30 29 28 26 25 25 24 23 23 24 23 22 22 22 21 21 21 20 20 19 18 17 17 17 16 16 15 15 15 15 15 15 15 16 16 16 16 16 15 15 14 13 13 13
39 40 43 44 44 45 44 44 46 45 43 44 44 41 38 38 38 36 37 39 38 36 37 35 33 33 34 35 35 36 38 39 37 37 38 37 36 35 34 34 32 31 30 29 28 27 26 25 24 24 24 23 23 23 22 22 22 22 21 21 19 18 18 18 18 17 16 16 15 15 15 15 15 15 15 15 16 16 16 16 15 15 14 13 13 13
40 39 40 43 43 44 44 43 45 44 41 43 45 42 40 38 36 35 35 37 37 35 36 35 31 31 33 35 34 33 35 38 36 35 36 36 35 34 34 34 32 30 30 29 29 28 27 26 25 24 24 23 23 23 22 22 22 22 21 20 18 17 17 18 18 17 17 17 16 16 16 16 15 15 15 16 16 16 15 15 14 14 13 13 12 12
38 40 39 41 43 45 45 43 44 44 40 40 42 41 41 39 35 35 34 35 35 35 35 36 33 29 31 34 34 32 33 36 35 34 35 34 34 33 33 33 31 30 30 29 28 27 27 27 26 25 24 24 23 23 23 22 22 21 20 20 18 17 18 18 18 18 17 17 17 17 17 17 16 16 16 16 16 15 14 14 13 13 13 13 12 12
37 40 39 40 43 44 43 42 43 44 41 38 39 41 41 38 35 36 36 34 33 33 32 35 34 31 31 32 33 34 36 35 35 35 34 34 34 33 32 32 30 29 29 29 28 28 27 27 26 25 24 24 24 23 23 23 22 21 20 20 19 18 18 18 18 18 18 18 18 17 17 17 16 16 16 15 15 15 14 14 13 13 13 12 12 12
37 40 39 39 41 42 43 43 42 43 42 37 36 39 40 37 34 35 35 33 32 30 29 32 34 31 31 33 32 33 37 37 37 37 35 34 34 33 32 31 30 30 29 29 29 28 27 27 26 25 24 24 24 23 23 23 22 20 20 20 19 18 18 18 17 17 18 18 18 17 17 16 15 15 15 15 14 14 14 13 13 12 13 13 12 12
35 38 38 38 39 40 42 43 41 41 41 38 34 35 38 37 34 33 33 32 31 30 29 32 33 29 29 34 33 31 35 37 36 35 34 34 34 33 32 31 30 30 29 29 28 28 27 26 26 25 24 24 24 23 22 22 22 21 20 20 19 18 18 18 18 17 17 17 17 17 16 15 15 15 15 14 14 14 13 12 12 12 12 13 12 11
32 34 35 35 36 39 40 41 41 40 41 38 32 31 35 36 34 31 31 31 28 29 33 34 34 31 28 30 33 33 33 33 32 32 32 34 34 33 32 30 30 29 29 28 28 28 27 26 26 24 23 23 23 23 23 23 22 21 20 20 20 18 17 17 18 18 17 17 17 16 15 15 15 15 15 14 14 14 13 12 12 12 12 12 12 11
30 31 32 32 35 38 37 38 40 39 41 39 32 30 33 34 33 31 30 30 27 28 34 36 35 33 30 28 30 33 34 31 30 31 32 33 33 33 31 30 30 29 29 28 27 27 27 26 25 24 23 23 23 24 24 23 22 21 21 20 20 19 18 17 18 17 17 17 16 16 15 15 15 15 15 14 13 13 13 12 12 11 11 11 11 11
28 28 31 32 35 39 37 36 38 38 39 38 33 32 32 31 32 31 30 30 29 30 31 33 34 32 29 29 29 30 32 32 29 29 31 32 32 32 32 31 29 29 29 29 28 27 27 26 25 24 23 23 24 24 24 23 22 22 21 21 21 20 19 17 17 17 17 17 16 16 15 15 15 14 14 13 13 13 12 12 12 11 11 11 11 11
25 25 30 33 33 37 38 36 38 38 39 39 36 34 32 30 30 32 30 30 30 31 30 29 31 30 28 29 30 29 28 28 30 30 30 32 32 32 32 31 30 29 29 29 28 27 27 26 25 24 23 24 24 24 24 23 22 22 22 22 21 20 19 18 17 17 17 17 16 16 15 15 14 14 13 13 12 13 12 12 12 12 12 12 12 12
25 23 29 34 32 34 37 36 36 37 39 39 37 35 33 30 30 30 30 30 29 29 28 27 26 28 29 25 26 30 27 24 27 29 29 30 31 31 31 32 31 30 30 30 29 28 27 26 25 24 24 24 24 24 23 23 23 22 22 22 21 20 19 18 17 17 17 16 16 15 15 14 14 14 13 12 12 13 12 12 12 12 12 12 12 12
25 21 27 34 32 34 37 34 34 35 36 37 35 33 32 30 28 28 28 27 27 26 25 26 25 25 26 22 21 25 28 26 24 25 27 28 29 30 31 31 31 31 31 30 29 28 28 27 26 25 25 24 24 24 23 23 23 23 22 22 21 20 19 18 18 17 17 16 16 15 15 15 15 14 13 13 13 13 12 12 12 12 12 12 12 12
22 19 26 33 32 34 37 33 33 35 35 35 35 33 32 29 26 26 26 23 24 25 24 25 27 25 23 23 22 23 26 27 25 25 25 26 28 30 30 31 31 30 30 30 29 28 28 28 27 26 26 25 24 24 24 23 23 23 22 22 22 20 19 19 18 17 17 16 16 16 16 15 15 15 14 13 13 13 12 12 12 12 12 12 12 12
20 16 24 33 31 34 37 33 31 34 34 32 35 34 30 29 25 23 24 23 24 25 23 25 29 28 25 23 24 25 26 25 24 24 25 26 27 29 29 30 30 30 30 30 29 28 28 28 27 27 26 26 25 24 24 24 23 23 23 23 22 21 20 19 18 17 17 17 17 17 16 16 16 15 14 14 13 13 12 12 13 12 12 12 12 12
20 15 21 31 30 31 36 33 29 33 34 31 33 33 29 28 26 23 23 24 25 24 23 26 28 27 27 24 22 25 28 26 24 24 25 26 27 28 28 29 30 30 29 29 29 27 28 28 27 27 27 27 26 25 24 24 23 23 24 23 22 21 20 20 19 18 17 17 17 17 17 16 16 15 15 14 14 13 13 13 12 12 11 11 11 11
19 14 18 27 29 29 33 33 28 31 33 30 30 33 29 27 26 24 23 23 25 25 23 24 25 24 26 26 23 24 26 27 26 25 25 26 27 27 28 28 29 29 29 29 28 27 27 28 28 28 28 27 27 25 25 24 23 23 24 23 23 21 21 20 20 19 18 18 18 18 17 17 16 15 15 14 14 13 13 13 12 11 11 11 11 11
19 15 15 24 28 27 30 32 30 31 33 30 29 32 30 28 27 24 23 23 23 24 23 22 22 21 23 25 25 24 23 25 26 26 25 25 26 27 28 28 28 29 29 29 28 27 27 28 28 28 28 27 26 25 25 24 24 24 23 23 23 22 21 21 20 19 19 19 18 18 18 17 16 16 15 14 14 13 13 13 12 11 11 11 11 11
17 15 15 21 26 27 29 31 30 31 33 30 28 31 32 30 29 26 24 24 22 22 23 22 21 19 19 21 24 23 22 22 24 25 24 25 26 27 27 28 28 29 28 28 28 28 28 28 28 28 28 27 26 26 25 24 24 24 24 23 23 22 21 21 21 20 19 19 18 19 19 17 17 16 15 15 14 14 14 13 12 11 11 11 11 12
15 14 15 20 25 27 28 30 30 30 32 30 26 29 30 29 29 27 24 24 23 22 21 22 21 17 15 18 21 21 21 20 21 23 23 24 26 26 27 28 29 29 28 28 28 27 27 27 27 28 28 27 26 26 26 25 24 24 24 23 23 23 22 21 21 20 19 19 19 19 18 17 17 16 16 15 14 14 14 13 12 12 12 12 12 12
15 13 15 18 22 26 27 28 29 29 30 29 27 27 28 29 29 27 24 23 22 22 20 19 19 17 15 17 19 20 21 20 19 21 21 22 24 26 27 28 28 28 28 28 28 27 26 27 27 28 28 27 26 26 26 25 24 24 24 24 24 23 22 22 21 20 19 19 19 19 18 18 18 17 16 15 15 15 15 14 12 12 12 13 13 12
17 14 14 17 20 23 24 25 27 28 28 29 29 28 27 28 29 27 24 22 22 23 23 19 17 17 15 16 18 19 21 20 19 19 19 19 20 22 24 26 27 27 28 28 27 27 27 27 27 28 28 27 26 26 25 25 24 24 24 24 24 23 22 21 21 20 20 20 20 20 19 19 18 17 17 16 15 15 15 14 13 13 13 13 13 13
17 14 13 16 19 22 23 24 27 30 29 28 31 31 28 27 29 27 24 23 22 23 25 22 18 17 15 15 17 18 19 19 18 18 19 19 19 21 23 24 26 27 27 28 27 27 27 27 28 28 28 27 26 25 25 24 24 24 24 24 23 23 22 21 21 21 21 20 21 21 20 19 19 18 18 17 16 16 16 14 14 14 14 14 13 13
16 14 13 14 16 20 23 24 26 29 29 28 30 33 31 29 29 27 26 24 22 21 24 24 21 18 15 16 17 17 17 17 17 18 19 19 20 21 23 25 26 26 27 27 27 27 27 27 28 28 28 28 26 25 24 24 23 24 24 24 23 22 22 21 21 21 21 21 21 21 20 20 19 19 18 17 17 17 16 15 14 15 15 14 14 14
15 14 14 14 14 16 19 21 24 28 29 29 30 32 32 30 29 28 27 26 23 20 21 23 25 21 16 15 17 17 16 15 16 16 17 17 19 20 22 24 26 26 27 27 27 27 27 27 28 28 28 27 26 25 24 23 23 23 24 24 23 22 21 21 21 21 21 22 22 21 20 20 20 19 18 18 17 17 16 15 15 15 15 15 15 15
15 14 14 14 14 15 17 19 22 26 28 29 29 30 31 32 31 30 29 27 26 23 20 20 25 26 21 16 15 15 14 14 14 15 15 15 17 19 21 23 25 26 27 27 27 27 27 28 28 28 27 26 26 24 23 23 22 22 22 23 22 22 22 22 21 21 21 22 22 21 20 20 20 19 19 18 18 18 17 16 15 16 16 16 16 15
14 13 13 14 14 15 15 16 19 22 26 28 29 30 30 31 31 30 29 28 28 26 22 18 21 25 25 21 16 13 13 13 14 15 15 15 16 18 20 22 25 26 26 27 27 27 27 27 27 27 26 26 25 24 23 23 22 22 22 22 22 21 22 22 22 21 21 22 22 21 20 20 20 20 19 18 18 18 18 16 16 16 17 17 17 16
15 12 12 13 13 15 15 15 17 20 23 26 28 30 31 31 30 29 29 28 28 27 25 22 21 21 23 24 21 17 15 15 15 16 16 16 16 17 19 21 24 25 26 26 26 27 27 27 27 27 26 25 25 24 23 22 21 21 22 22 22 22 21 22 22 22 22 22 21 21 21 21 20 20 19 19 19 19 18 17 17 17 18 18 18 17
14 11 11 13 13 13 15 16 17 19 21 23 27 29 30 30 29 28 28 28 28 27 26 25 24 21 19 20 22 21 19 17 16 17 17 16 16 17 19 21 23 25 25 26 26 26 27 28 28 27 26 25 25 25 23 22 21 21 21 21 21 21 22 22 23 23 23 23 22 22 21 21 21 20 20 20 20 20 19 18 18 18 18 18 18 18
15 11 9 12 13 12 13 15 15 17 19 22 25 28 28 28 28 28 28 29 28 27 26 25 25 23 19 18 20 21 19 18 17 17 17 17 16 17 19 20 22 24 25 26 26 27 28 28 28 27 26 26 26 25 23 22 21 20 21 22 21 21 22 23 24 24 24 23 23 22 21 21 21 21 21 20 20 20 19 18 19 19 19 19 19 19
14 12 9 10 11 11 11 12 13 16 19 20 22 25 27 27 27 27 27 27 28 27 25 24 23 23 21 21 21 20 19 18 18 18 17 16 17 17 18 19 21 23 25 26 27 27 28 28 27 27 26 26 26 25 23 22 21 20 21 22 22 22 22 23 24 24 24 24 23 22 22 21 21 21 21 21 21 21 20 19 19 19 19 20 20 20
14 12 10 9 10 10 9 10 13 16 17 16 17 21 25 25 25 25 25 25 27 27 26 25 24 22 21 21 21 21 20 19 18 19 18 17 18 18 18 19 21 22 24 25 26 27 28 28 27 27 27 26 25 25 24 22 21 21 22 22 22 22 23 23 23 24 24 24 23 23 22 22 21 21 22 22 22 21 21 20 20 20 20 20 21 20
13 12 9 9 9 9 8 10 12 12 13 13 13 17 22 24 24 24 24 25 26 26 26 26 24 22 21 21 22 22 21 19 19 20 19 18 19 19 18 19 20 22 23 24 26 27 27 27 27 27 26 25 24 24 23 23 22 22 22 22 23 23 23 24 24 24 24 24 23 23 23 23 22 22 22 23 22 22 22 21 21 21 21 21 21 20
13 11 8 8 9 8 7 10 11 10 11 14 13 13 18 21 22 23 22 22 24 24 24 24 24 22 21 22 23 22 20 19 19 20 20 19 19 19 19 19 21 22 23 24 25 26 26 27 26 26 25 24 24 24 24 23 23 23 23 23 23 24 24 25 24 24 24 24 24 24 24 23 23 23 23 23 23 23 23 22 22 22 21 21 21 20
10 10 9 8 8 7 7 8 10 9 10 12 11 12 14 16 18 20 20 20 21 23 23 23 22 22 21 22 23 21 19 19 19 18 18 19 19 19 19 20 21 23 23 24 24 25 25 25 25 25 24 24 24 24 23 23 23 23 23 23 23 24 24 25 25 25 25 25 24 24 24 23 23 23 23 23 23 23 23 22 22 22 22 22 21 21
9 9 9 8 8 8 6 6 8 8 9 9 9 11 13 14 15 17 17 17 18 20 22 23 22 21 20 21 21 20 19 19 18 16 16 17 18 19 19 20 21 23 24 24 24 24 24 23 24 24 24 23 23 23 22 22 22 23 23 23 23 24 24 24 24 25 25 24 24 24 24 23 23 23 23 23 23 23 23 22 22 22 22 22 22 22
10 9 9 9 8 8 6 5 6 7 8 8 9 10 12 14 15 16 16 14 14 16 19 21 22 21 21 21 20 19 20 19 17 15 15 16 17 18 19 20 21 22 24 25 24 24 23 22 23 24 24 23 23 22 22 21 21 21 22 23 23 24 24 24 24 24 24 23 23 23 23 23 23 23 23 23 23 22 22 22 22 22 22 22 22 22
11 9 9 9 8 7 6 5 5 6 7 7 9 10 12 14 16 16 14 12 11 13 15 18 19 20 20 20 19 19 20 19 16 14 14 15 17 18 18 20 21 22 23 24 24 23 22 22 22 23 23 23 22 22 22 21 20 21 21 22 23 23 23 23 23 23 22 23 23 23 23 23 22 22 23 22 22 22 22 22 22 22 22 22 22 22
10 9 8 9 8 7 6 5 4 6 7 6 7 9 12 14 14 13 12 10 11 12 14 16 17 17 18 19 19 18 18 18 16 14 14 16 17 18 18 20 21 23 23 23 23 23 22 22 22 22 22 22 22 21 21 21 21 20 20 21 21 22 22 22 22 21 21 22 22 22 22 22 22 22 22 22 22 22 22 22 22 23 23 23 22 22
10 9 8 8 8 7 7 6 5 6 7 5 6 9 11 12 12 11 11 10 9 10 12 14 16 17 17 18 19 19 18 17 16 15 15 17 18 18 18 19 20 22 21 21 22 22 22 21 21 22 22 22 22 21 21 21 21 20 20 20 20 21 21 21 21 21 21 21 22 22 22 23 23 23 23 23 23 23 23 23 23 23 23 23 23 22
11 9 7 6 7 7 7 5 5 6 6 4 6 8 9 9 10 10 10 9 8 8 10 12 13 15 17 17 18 18 18 17 16 15 15 17 18 19 18 18 20 21 20 20 21 21 21 21 21 21 22 22 21 21 21 20 20 20 20 20 20 20 20 21 21 21 22 22 22 22 23 23 24 24 24 23 24 24 24 24 24 24 23 23 23 23
9 8 7 6 7 7 7 6 5 6 7 6 6 8 9 9 9 9 9 8 7 7 9 10 11 13 14 15 16 17 17 17 16 15 15 17 18 19 19 19 20 20 20 20 21 21 21 21 21 21 22 21 21 21 20 20 21 21 20 20 20 20 20 20 20 20 22 23 22 23 23 24 24 24 24 24 24 24 24 24 24 24 24 23 23 23
9 8 7 6 7 7 9 9 8 8 8 8 8 8 9 9 8 8 8 8 7 6 7 8 9 10 12 13 14 15 16 16 16 15 15 17 18 20 20 20 20 20 20 20 21 21 21 21 21 21 21 21 21 21 20 20 21 21 20 20 20 20 20 20 20 21 22 22 22 22 22 23 24 24 24 24 24 24 24 24 24 24 24 24 24 24
11 9 7 6 6 7 7 9 9 9 8 8 8 9 9 8 7 8 8 7 6 6 6 6 7 9 10 11 12 13 14 15 16 16 16 17 19 20 20 21 21 21 21 21 21 22 21 21 21 21 21 21 21 21 21 21 21 21 21 21 21 21 20 21 21 21 22 22 21 21 22 22 23 23 23 23 23 23 24 24 24 24 24 24 24 23
10 9 8 8 8 7 7 7 8 9 8 8 9 9 8 8 7 7 8 8 7 6 6 6 7 8 9 9 10 11 12 13 15 16 17 17 19 20 20 21 21 21 21 21 22 22 22 21 21 22 22 22 21 21 21 21 21 21 21 22 22 22 21 21 21 21 22 22 21 22 22 23 23 23 23 23 23 23 23 24 24 24 24 24 24 23
10 9 10 9 7 7 8 7 7 8 9 9 9 8 8 8 8 8 8 8 7 7 6 6 6 7 8 8 9 10 11 12 13 15 16 17 18 19 20 21 22 22 23 23 23 23 23 22 22 22 22 22 22 22 21 21 21 22 21 22 23 22 20 21 21 21 21 21 21 22 22 22 23 23 23 23 23 23 23 24 24 24 24 24 23 23
11 11 11 10 8 7 7 6 6 7 9 9 8 8 8 9 9 8 7 7 6 6 7 7 7 7 7 8 8 9 10 10 11 13 15 15 15 17 18 20 21 22 23 23 23 23 23 23 22 22 22 22 22 22 22 21 22 22 21 22 23 23 21 21 21 21 20 21 21 21 21 22 22 22 22 23 23 23 23 23 23 23 23 23 23 23
11 11 11 11 10 8 7 6 7 8 8 8 9 9 9 9 9 8 7 7 7 7 7 7 7 7 7 8 8 8 9 9 10 11 12 13 14 15 16 18 20 21 21 22 22 23 23 23 22 22 22 22 22 22 23 22 22 22 21 22 24 24 23 22 22 21 21 22 21 21 20 21 21 22 22 23 23 23 23 23 23 23 22 22 23 23
Wind_Direction
218 218 217 216 216 215 216 217 219 221 220 222 223 224 225 226 227 226 227 226 223 226 227 227 233 234 230 230 230 229 229 230 232 232 234 235 236 236 236 238 241 241 240 237 234 233 235 237 237 237 237 237 237 237 237 236 238 240 240 239 239 238 239 240 241 240 240 242 244 245 247 248 248 249 252 253 253 255 257 259 264 268 266 262 263 267
218 220 218 217 217 216 217 218 219 220 221 222 224 225 225 226 227 226 226 225 223 229 231 228 232 233 230 230 230 230 230 230 231 231 233 235 236 237 237 239 241 241 239 236 233 233 234 236 235 235 236 235 234 235 235 236 239 240 239 238 238 236 237 238 239 239 240 243 244 245 246 247 247 248 249 251 253 257 260 261 263 266 264 262 261 263
218 220 218 216 216 217 218 218 218 219 219 221 223 224 225 225 226 226 225 224 223 229 232 229 231 232 230 231 230 230 233 232 230 231 235 236 237 239 239 239 239 239 238 234 232 233 233 234 233 233 234 233 233 233 234 237 238 238 238 238 238 235 234 237 238 238 240 243 244 245 245 245 245 248 249 251 253 256 259 261 263 262 260 259 257 257
218 219 217 216 215 216 217 216 217 218 218 220 221 223 224 223 223 224 222 222 223 227 229 228 230 232 230 231 231 230 234 234 231 232 237 238 238 238 238 239 239 237 235 232 231 232 232 232 231 231 232 232 232 232 234 236 237 236 237 237 236 233 233 235 237 238 240 241 243 243 243 243 246 250 252 252 253 255 257 259 259 258 257 255 253 255
220 218 216 215 215 214 215 215 215 216 217 218 220 221 223 221 220 222 222 221 223 225 225 225 229 231 229 230 231 230 233 234 230 230 234 236 237 238 238 238 237 236 233 230 229 231 231 231 229 229 230 230 230 232 233 234 235 235 235 235 233 232 233 235 235 237 239 239 241 242 241 244 249 253 253 253 253 254 257 257 255 255 254 251 251 254
219 217 214 214 214 213 214 215 213 213 215 216 218 220 221 221 222 223 220 217 218 221 221 221 227 230 228 230 232 229 230 232 228 227 231 234 235 236 235 234 234 234 232 230 229 229 230 229 227 227 228 228 229 231 232 233 232 232 233 234 231 230 233 235 235 237 238 239 240 240 239 242 249 252 252 252 253 254 256 254 252 252 248 246 250 252
216 214 214 212 212 211 212 214 212 211 213 215 215 217 219 220 220 218 213 210 215 221 221 221 227 232 230 231 231 228 230 230 226 228 231 232 233 232 230 231 231 231 230 229 228 228 228 226 225 226 227 228 230 230 232 232 230 230 232 233 231 232 236 237 237 237 237 238 239 239 239 243 250 251 251 252 252 252 253 252 250 248 243 245 250 250
212 212 212 211 210 210 211 212 210 209 211 214 213 214 216 216 216 214 211 211 217 223 224 222 226 232 234 232 229 228 231 229 226 229 229 229 230 228 227 229 229 229 228 227 226 226 225 224 224 225 226 229 230 230 230 229 228 227 229 233 234 234 237 237 237 236 235 236 237 238 241 245 251 251 250 250 248 250 252 250 247 243 241 244 248 248
210 211 210 208 209 209 209 209 208 208 210 212 212 211 212 214 215 215 214 215 218 222 224 222 222 229 234 232 229 229 229 227 227 229 227 226 226 226 227 228 227 227 226 225 225 224 222 222 223 224 225 228 228 228 227 226 227 228 229 234 235 235 237 237 235 233 233 234 235 238 240 244 248 250 250 248 246 247 248 245 242 239 241 243 244 246
208 210 209 208 209 209 207 206 207 208 208 208 209 209 210 213 216 216 214 216 218 222 225 222 219 225 232 231 227 228 227 226 228 229 227 225 224 226 227 226 225 225 224 223 223 222 220 220 222 223 224 226 225 224 223 223 226 229 230 233 234 236 237 235 233 231 231 233 235 237 239 241 244 246 247 245 243 243 243 240 239 240 241 240 240 242
208 209 208 209 209 207 205 204 206 207 205 205 207 207 207 210 213 214 215 215 218 224 226 224 221 224 232 231 226 227 229 227 227 227 226 224 223 225 225 224 224 222 222 221 220 219 218 219 221 222 222 222 220 219 220 222 224 227 230 231 233 235 236 234 231 230 230 232 234 236 238 239 241 243 242 240 239 238 237 236 237 239 239 237 237 238
208 208 206 207 207 204 202 203 205 205 204 205 206 206 206 207 209 213 215 215 220 225 225 224 224 225 230 230 226 227 229 228 226 224 224 222 221 223 223 222 222 221 220 219 217 216 216 217 219 220 219 217 216 217 219 222 223 225 229 230 231 233 234 233 231 229 229 231 233 236 238 238 239 242 239 236 235 234 232 234 236 238 237 236 236 237
204 206 204 204 204 202 202 202 202 203 202 203 204 204 204 204 206 211 213 215 221 225 224 222 222 224 228 229 228 228 228 226 224 224 224 221 220 221 220 220 219 219 219 217 215 214 214 216 217 217 216 214 214 216 219 222 223 226 228 229 229 230 231 231 230 229 230 232 233 237 238 237 239 241 237 233 233 231 231 233 235 236 236 237 238 239
198 204 204 202 200 201 201 199 198 199 199 200 202 203 203 201 203 207 210 214 219 223 223 219 218 223 228 229 228 227 227 225 223 225 224 220 220 221 219 218 217 217 217 216 214 212 212 214 215 215 214 212 214 216 219 222 224 226 228 228 229 229 228 229 229 229 230 232 234 236 236 236 239 238 234 233 231 228 230 232 233 236 237 238 239 240
195 202 202 199 197 197 199 199 198 197 197 199 202 202 203 203 204 206 208 212 217 217 217 214 215 222 225 227 226 223 225 225 221 222 222 219 220 220 217 216 216 215 216 215 214 212 212 212 212 214 213 213 214 215 218 221 223 225 227 227 228 228 228 229 229 229 231 232 234 235 235 236 237 234 232 233 230 228 229 231 233 237 238 239 240 242
197 204 199 196 196 195 196 197 196 195 196 199 201 202 204 203 204 207 210 214 216 215 214 214 217 221 221 223 223 220 221 221 218 218 218 217 217 215 214 214 214 214 215 216 214 212 211 211 212 213 214 213 214 215 218 220 222 224 225 227 228 228 228 229 229 230 232 233 233 234 234 234 232 231 231 231 230 230 231 233 235 238 239 240 241 242
194 201 195 192 195 196 195 194 195 195 195 196 199 202 203 203 203 206 210 214 215 215 215 214 217 220 220 221 221 219 220 218 217 218 217 215 214 213 213 213 213 214 215 216 215 212 211 211 213 214 213 213 213 215 218 219 221 223 224 226 228 229 229 228 228 231 232 233 233 233 232 231 229 230 231 230 229 230 233 235 237 238 240 241 241 241
191 195 191 190 192 193 194 195 196 197 197 196 200 201 201 203 206 207 209 210 210 213 214 212 215 218 219 222 219 217 219 216 214 216 216 214 213 212 212 212 212 214 216 216 213 211 211 212 213 214 213 213 214 216 218 219 221 222 224 226 228 228 228 228 228 230 232 232 233 232 230 229 229 230 231 230 229 231 234 235 236 239 242 241 239 238
191 190 187 190 192 191 193 196 196 197 200 201 201 201 201 203 205 205 206 206 208 211 212 212 215 217 219 220 215 214 218 218 217 216 215 214 212 212 212 211 212 213 215 215 213 211 212 213 213 213 214 215 216 217 218 220 221 222 224 226 228 227 227 228 229 230 231 231 231 231 229 228 229 231 230 229 229 232 234 234 237 240 241 238 235 233
187 184 186 191 192 189 191 196 195 193 197 201 201 201 203 205 204 203 204 205 207 210 212 212 214 218 219 219 216 215 217 219 219 216 214 213 212 213 212 211 212 214 215 215 214 212 212 213 212 212 214 215 216 218 218 219 221 222 223 226 227 228 228 228 229 229 230 230 229 228 227 228 229 230 229 227 228 231 232 234 238 240 237 233 232 230
185 185 187 188 187 188 191 194 195 191 193 196 197 197 200 203 204 205 207 207 208 210 212 213 215 218 218 219 219 218 215 217 217 214 213 214 213 213 213 213 214 214 215 215 214 213 212 213 213 212 214 215 216 218 218 219 221 221 223 225 227 228 227 227 227 229 229 228 227 225 225 226 228 228 228 227 228 230 232 235 238 237 233 231 229 228
185 187 188 185 186 190 191 192 194 193 193 195 197 197 198 200 201 204 207 207 208 211 211 213 218 219 217 216 218 218 215 214 214 212 213 215 214 213 212 213 215 215 215 214 213 214 213 213 213 212 214 215 216 218 219 220 220 220 223 225 226 227 227 225 226 227 227 226 226 224 223 224 227 227 226 226 228 229 231 235 236 233 231 229 227 226
181 183 187 187 189 191 190 191 195 195 195 198 200 199 199 199 201 204 205 203 206 211 210 211 216 216 213 211 211 212 213 211 209 210 213 215 214 213 212 213 214 214 214 213 213 213 213 212 212 212 213 215 217 218 219 220 221 220 223 225 226 227 226 224 225 225 224 224 224 223 223 225 226 225 223 225 227 228 230 234 234 230 229 227 226 226
179 181 185 184 186 189 190 192 196 196 196 198 200 199 199 200 202 205 206 204 207 210 206 207 211 208 207 209 210 211 213 212 209 207 211 214 213 213 213 213 212 213 213 213 213 213 212 212 212 212 213 215 217 219 220 222 221 220 222 225 226 226 225 224 224 224 224 223 222 222 223 225 224 222 223 226 227 227 229 232 232 229 227 226 226 227
182 183 184 181 179 184 188 190 194 197 197 198 199 200 203 203 202 205 208 207 209 211 209 209 207 202 202 209 211 213 214 214 211 207 208 211 211 212 211 210 211 213 214 213 212 211 211 212 212 213 213 214 216 219 221 222 221 220 222 224 225 225 224 224 224 224 223 222 221 221 222 224 224 222 224 227 227 227 230 232 230 227 226 227 227 229
186 186 186 185 182 183 187 190 193 195 197 199 200 202 205 204 202 203 206 207 208 209 210 212 207 198 198 205 208 210 212 212 210 208 209 211 212 213 212 212 213 214 213 211 211 211 211 212 212 213 213 214 217 219 220 221 220 220 222 223 224 225 224 223 224 223 222 222 221 221 221 223 223 223 226 227 227 228 230 232 230 227 228 229 229 231
188 191 193 195 194 190 191 193 195 196 198 200 200 201 203 205 205 204 206 208 208 206 209 212 208 199 196 203 205 203 204 206 207 208 209 210 213 216 218 217 216 214 212 211 211 211 211 213 213 213 213 215 217 218 219 220 219 219 220 221 222 223 223 222 222 221 221 221 221 221 221 222 223 224 227 228 228 229 231 232 231 229 229 230 231 233
189 192 194 201 204 198 196 196 196 197 200 201 201 202 203 206 207 207 207 208 208 208 209 210 210 209 204 199 200 200 200 201 204 205 207 210 214 219 219 217 215 213 211 212 212 212 212 213 213 212 212 214 215 215 217 218 217 217 219 219 220 221 221 221 221 220 221 221 221 221 221 222 223 225 226 228 229 230 231 233 232 231 231 232 234 236
192 195 193 199 203 202 203 200 194 196 201 203 203 204 204 205 207 209 209 208 209 211 210 206 209 214 216 206 196 197 201 202 201 205 210 215 218 220 219 215 214 213 212 212 212 212 212 212 211 210 211 212 212 213 214 215 215 216 217 217 218 219 220 220 220 220 220 220 221 221 221 222 223 225 226 228 230 230 231 234 233 232 232 234 236 239
194 197 196 198 198 200 204 197 191 196 202 204 205 205 205 205 207 209 211 211 211 212 214 214 213 214 217 214 202 195 205 211 212 215 219 222 222 222 220 216 213 213 213 211 211 211 211 210 208 207 209 210 211 211 212 212 213 215 216 217 217 218 219 219 219 219 219 219 220 221 221 222 223 224 226 228 230 231 232 234 234 233 234 235 238 240
192 196 199 200 198 201 203 200 197 200 202 203 205 206 206 207 208 209 210 211 212 213 216 221 221 216 214 216 216 216 219 222 223 222 223 225 225 223 222 218 213 212 212 212 211 210 209 207 205 205 207 208 209 209 210 212 214 215 216 217 217 218 219 219 218 218 218 218 219 220 220 222 224 225 227 229 230 231 233 234 235 235 236 237 239 242
190 196 199 199 200 203 205 206 207 207 206 206 207 205 205 207 208 209 211 211 213 215 217 220 222 219 214 216 222 226 227 227 226 225 225 226 226 225 224 220 215 211 211 211 210 209 207 205 203 204 206 207 207 209 211 213 216 217 218 219 219 219 220 219 218 217 217 217 219 220 222 224 226 227 228 230 231 232 234 235 236 237 238 238 240 243
190 194 196 198 202 205 205 207 210 210 211 212 210 207 207 207 208 209 211 212 213 216 218 219 221 222 222 223 224 225 227 229 228 226 225 226 227 226 224 221 216 211 210 210 209 207 206 204 203 205 207 207 208 211 214 216 218 221 220 220 221 221 220 219 218 218 217 219 220 221 223 226 227 228 230 231 233 234 235 237 237 238 239 241 242 245
192 196 198 200 204 206 207 209 210 209 210 212 209 208 208 209 209 210 211 212 214 216 219 221 223 224 225 226 226 225 227 229 226 224 225 226 228 227 223 219 215 210 209 209 208 206 205 204 205 207 208 209 211 214 216 219 222 223 222 221 222 222 220 219 219 218 218 220 221 223 225 227 228 230 231 233 235 236 237 238 239 240 241 243 245 247
192 196 200 202 205 208 211 212 211 209 208 208 207 206 208 210 211 213 214 214 215 218 220 223 226 225 224 225 226 226 227 228 225 224 226 227 228 226 222 218 212 209 208 207 205 205 204 204 206 208 208 209 212 215 218 222 224 225 223 222 221 220 219 218 218 219 219 221 222 225 226 228 229 231 233 235 236 238 239 240 241 242 243 245 247 249
190 194 200 205 205 208 212 211 209 205 200 200 204 205 206 208 210 212 215 216 217 218 220 222 225 226 224 224 225 225 227 228 225 225 228 229 227 224 221 216 210 206 205 204 203 204 204 205 207 208 209 211 213 216 219 222 224 224 223 221 220 220 219 219 219 220 220 222 223 226 228 229 231 233 234 236 237 239 240 242 243 244 244 246 249 251
189 194 200 202 201 206 216 210 202 196 194 196 202 204 203 206 209 210 214 217 218 218 220 222 224 225 223 222 223 224 226 227 226 227 228 227 224 221 219 216 209 205 203 202 202 202 204 206 207 208 210 213 216 218 221 223 224 224 223 222 222 221 219 219 220 220 222 223 225 227 229 231 233 234 236 237 238 240 241 243 244 245 246 247 249 252
189 196 196 196 200 211 224 213 202 200 197 195 198 200 202 206 209 210 215 219 218 218 220 221 222 222 220 219 221 223 223 223 224 224 222 221 220 219 217 215 210 205 202 201 201 201 203 205 207 209 212 214 216 219 221 223 224 224 223 222 222 220 219 220 221 222 223 225 227 229 230 232 233 235 236 238 239 241 242 244 245 247 247 248 249 253
194 193 192 198 207 216 226 218 208 204 196 193 198 200 201 203 202 204 213 218 217 217 218 219 220 219 215 215 218 218 217 218 221 219 218 219 219 218 216 212 209 205 202 201 201 201 201 204 208 211 213 215 216 218 220 221 222 223 222 222 221 219 219 219 221 222 224 226 228 229 230 232 233 235 237 239 240 241 243 244 246 248 249 250 251 254
193 188 191 202 209 218 222 210 204 205 198 198 205 204 200 199 197 201 209 212 215 219 218 217 217 214 212 214 216 215 213 216 218 217 219 220 218 216 215 210 206 205 204 203 202 201 202 206 209 211 213 216 216 216 217 219 221 221 221 220 220 219 219 219 221 223 225 227 228 229 231 232 233 235 237 239 240 242 243 245 247 248 249 251 254 256
188 185 196 206 211 221 218 195 192 200 195 202 210 201 192 193 196 201 207 211 217 221 217 215 213 211 211 214 215 213 213 215 214 212 215 217 214 213 212 208 205 204 204 204 203 203 205 208 209 211 213 214 214 215 216 218 219 219 219 219 219 219 219 220 222 224 226 228 229 230 232 234 235 236 238 240 241 243 244 246 249 250 252 253 255 257
183 182 200 210 211 216 208 190 195 198 185 194 208 193 186 193 198 202 209 216 220 218 215 213 210 209 210 212 212 213 213 212 211 212 214 212 209 208 209 206 204 204 203 201 201 203 206 207 208 209 211 212 213 214 216 218 218 219 218 218 217 217 218 220 223 224 226 228 230 231 234 235 236 238 240 240 242 243 245 248 251 253 253 253 254 257
184 186 205 213 209 209 199 183 191 194 182 187 204 194 192 200 202 203 209 215 215 216 217 213 208 207 209 211 213 216 215 213 213 216 216 210 206 207 207 204 203 204 201 199 198 200 204 206 208 210 210 211 212 212 214 216 217 218 218 217 217 218 220 223 225 226 228 232 233 234 235 236 237 239 240 241 242 244 247 250 253 254 253 253 254 257
192 194 205 205 202 206 200 185 188 194 190 192 198 193 191 195 198 202 207 208 207 213 217 213 206 206 208 211 213 215 215 216 215 215 215 211 208 208 207 205 204 203 200 198 199 201 205 208 210 210 210 211 211 212 213 215 216 216 217 217 218 220 223 226 228 231 233 235 236 236 237 237 239 240 242 244 246 247 249 251 253 253 253 254 255 258
197 200 203 206 210 214 212 209 207 201 199 201 198 190 185 187 194 197 197 198 200 205 211 211 205 202 205 208 210 210 211 214 212 211 212 211 208 207 206 205 204 201 200 201 202 204 208 210 209 209 210 210 211 212 214 215 216 216 217 218 220 223 225 228 232 235 237 238 239 240 240 240 241 242 244 247 249 249 249 250 252 252 253 254 256 258
204 203 203 212 220 223 224 223 219 210 205 204 202 197 192 191 195 195 191 191 192 192 200 204 201 199 203 206 208 210 211 211 210 210 211 210 208 206 205 205 204 202 203 204 204 205 208 209 209 209 209 210 212 213 215 217 218 219 220 223 226 227 228 232 236 239 240 240 241 242 242 241 242 244 246 249 251 250 249 249 250 251 252 253 255 257
202 202 209 215 212 214 220 220 217 217 215 208 203 201 197 196 200 201 195 191 190 191 196 198 196 197 200 204 207 209 211 212 212 211 211 212 211 209 208 207 207 206 207 206 204 206 209 210 211 210 209 211 214 216 219 220 222 224 226 228 231 231 232 236 240 241 241 242 243 244 243 243 244 246 248 250 251 250 249 249 249 250 250 252 253 255
197 202 215 219 216 219 220 213 209 211 215 214 209 204 200 201 207 208 203 199 200 200 196 193 195 197 199 201 203 202 204 209 211 211 212 214 215 214 212 210 208 208 209 208 207 209 212 212 212 212 212 214 217 220 222 224 226 228 230 232 234 235 236 239 242 242 243 243 244 246 246 245 245 246 248 249 249 248 248 248 249 250 251 252 253 253
206 210 216 219 225 232 228 222 216 208 206 209 210 205 204 210 213 210 204 204 208 210 204 195 193 196 199 203 203 200 199 202 208 211 214 215 215 214 213 213 212 212 212 213 213 215 218 217 215 215 216 218 220 223 225 227 229 231 233 235 236 236 237 240 242 243 244 245 246 247 248 246 245 246 248 247 247 247 248 249 250 251 253 254 254 253
217 216 218 221 224 225 220 222 225 217 211 212 210 204 205 214 217 210 203 203 208 216 217 205 196 197 200 202 205 205 203 203 207 212 214 215 215 214 213 213 215 215 216 216 216 217 220 220 218 217 219 221 223 226 228 230 232 233 235 238 237 235 237 241 243 243 244 246 248 249 248 246 246 247 248 248 247 248 250 251 252 254 255 255 254 253
224 219 217 220 224 228 226 223 223 224 222 218 212 206 206 214 216 208 206 211 216 224 226 212 202 205 205 203 207 210 210 211 212 213 214 215 217 217 215 215 216 217 218 217 216 217 220 221 219 218 221 225 229 231 232 234 234 235 237 239 239 238 239 242 244 244 246 247 249 249 248 247 247 248 248 249 249 249 250 251 253 255 256 255 254 253